Location: Unspecified
(48.8656°N, 0.0000°E)
Time: 14:56:47
(UTC+00:00)

Vanguard 2 - All Passes

Search period start: 16 June 2019 00:00
Search period end: 26 June 2019 00:00
Orbit: 552 x 2939 km, 32.9° (Epoch: 15 June)

Date Brightness Start Highest point End Pass type
(mag) Time Alt. Az. Time Alt. Az. Time Alt. Az.
16 Jun - 08:20:57 10° SSE 08:22:56 11° SE 08:25:06 10° ESE daylight
16 Jun - 10:22:49 10° SW 10:30:03 29° SSE 10:40:37 10° ESE daylight
16 Jun - 12:29:23 10° WSW 12:38:55 37° S 12:52:40 10° ESE daylight
16 Jun - 14:38:02 10° WSW 14:48:45 30° SSW 15:02:22 10° SSE daylight
16 Jun - 16:51:09 10° WSW 16:58:22 15° SW 17:06:07 10° SSW daylight
17 Jun - 08:36:10 10° S 08:40:06 15° SE 08:44:58 10° ESE daylight
17 Jun - 10:40:10 10° SW 10:47:33 32° SSE 10:58:34 10° ESE daylight
17 Jun - 12:47:10 10° WSW 12:56:36 35° S 13:10:06 10° SE daylight
17 Jun - 14:56:21 10° WSW 15:06:23 25° SSW 15:18:47 10° SSE daylight
18 Jun - 08:52:36 10° S 08:57:22 18° SSE 09:03:41 10° ESE daylight
18 Jun - 10:57:39 10° SW 11:05:08 33° S 11:16:23 10° ESE daylight
18 Jun - 13:05:03 10° WSW 13:14:19 32° S 13:27:20 10° SE daylight
18 Jun - 15:15:04 10° WSW 15:23:59 20° SSW 15:34:39 10° S daylight
19 Jun - 09:09:31 10° SSW 09:14:44 22° SSE 09:21:59 10° ESE daylight
19 Jun - 11:15:15 10° SW 11:22:46 33° S 11:34:03 10° ESE daylight
19 Jun - 13:23:04 10° WSW 13:32:01 29° SSW 13:44:17 10° SE daylight
19 Jun - 15:34:31 10° WSW 15:41:33 15° SSW 15:49:36 10° S daylight
20 Jun - 09:26:42 10° SSW 09:32:12 24° SSE 09:40:03 10° ESE daylight
20 Jun - 11:32:58 10° WSW 11:40:28 31° S 11:51:35 10° SE daylight
20 Jun - 13:41:18 10° WSW 13:49:43 24° SSW 14:00:52 10° SSE daylight
20 Jun - 15:56:36 10° SW 15:59:06 11° SW 16:01:42 10° SSW daylight
21 Jun - 07:41:00 10° SSE 07:42:37 11° SE 07:44:24 10° SE daylight
21 Jun - 09:44:05 10° SW 09:49:44 26° SSE 09:57:57 10° ESE daylight
21 Jun - 11:50:48 10° WSW 11:58:10 29° S 12:08:54 10° SE daylight
21 Jun - 13:59:52 10° WSW 14:07:24 20° SSW 14:16:56 10° SSE daylight
22 Jun - 07:56:57 10° S 07:59:58 14° SSE 08:03:37 10° ESE daylight
22 Jun - 10:01:37 10° SW 10:07:20 27° S 10:15:43 10° ESE daylight
22 Jun - 12:08:46 10° WSW 12:15:53 26° S 12:25:58 10° SE daylight
22 Jun - 14:19:08 10° WSW 14:25:05 15° SSW 14:32:10 10° S daylight
23 Jun - 08:13:46 10° SSW 08:17:23 17° SSE 08:22:01 10° ESE daylight
23 Jun - 10:19:16 10° SW 10:24:59 26° S 10:33:18 10° SE daylight
23 Jun - 12:26:57 10° WSW 12:33:37 22° SSW 12:42:42 10° SSE daylight
23 Jun - 14:41:01 10° SW 14:42:44 10° SSW 14:44:33 10° SSW daylight
24 Jun - 08:30:57 10° SSW 08:34:53 19° SSE 08:40:04 10° ESE daylight
24 Jun - 10:37:03 10° SW 10:42:40 24° S 10:50:42 10° SE daylight
24 Jun - 12:45:29 10° WSW 12:51:22 18° SSW 12:58:55 10° SSE daylight
25 Jun - 08:48:21 10° SSW 08:52:26 20° SSE 08:57:55 10° SE daylight
25 Jun - 10:55:01 10° SW 11:00:23 22° S 11:07:51 10° SE daylight
25 Jun - 13:04:46 10° SW 13:09:06 13° SSW 13:14:13 10° S daylight
